KS5S Weather Reports


time (UTC)temp
C
wind
direction
speed
KPH
gust
KPH
rain 1hr
cm
rain 24hr
cm
rain mn
cm
humidity
%
barometer
mb
20260509224136 32 347 1.6 4.8 0.00 0.00 0.00 44 1005.7
20260509223632 32 17 4.8 8.0 0.00 0.00 0.00 45 1005.7
20260509223130 32 36 3.2 8.0 0.00 0.00 0.00 43 1005.8
20260509222627 32 98 1.6 9.7 0.00 0.00 0.00 43 1005.8
20260509222122 32 22 0.0 6.4 0.00 0.00 0.00 45 1006.0
20260509221618 32 181 1.6 6.4 0.00 0.00 0.00 44 1005.6
20260509221114 32 120 1.6 9.7 0.00 0.00 0.00 45 1005.8
20260509220610 32 129 0.0 4.8 0.00 0.00 0.00 47 1005.8
20260509220107 32 351 1.6 6.4 0.00 0.00 0.00 42 1005.7
20260509215602 32 55 3.2 8.0 0.00 0.00 0.00 44 1005.5
20260509215100 32 296 4.8 9.7 0.00 0.00 0.00 45 1005.5
20260509214557 33 298 6.4 11.3 0.00 0.00 0.00 44 1005.7
20260509214053 32 282 3.2 8.0 0.00 0.00 0.00 44 1005.9
20260509213549 33 313 4.8 8.0 0.00 0.00 0.00 45 1005.6
20260509213046 32 331 3.2 8.0 0.00 0.00 0.00 48 1006.1
20260509212543 32 293 3.2 11.3 0.00 0.00 0.00 47 1006.3
20260509212040 32 299 8.0 11.3 0.00 0.00 0.00 44 1006.2
20260509211536 33 331 1.6 4.8 0.00 0.00 0.00 45 1006.4
20260509211033 33 265 3.2 11.3 0.00 0.00 0.00 43 1006.3
20260509210530 33 356 1.6 4.8 0.00 0.00 0.00 42 1006.4
20260509210026 32 67 1.6 6.4 0.00 0.00 0.00 43 1006.6
20260509205526 33 74 3.2 6.4 0.00 0.00 0.00 45 1006.6
20260509205021 33 290 0.0 3.2 0.00 0.00 0.00 44 1006.5
20260509204518 32 267 4.8 8.0 0.00 0.00 0.00 47 1006.7
20260509204014 32 211 4.8 6.4 0.00 0.00 0.00 45 1006.6
20260509203510 32 137 0.0 4.8 0.00 0.00 0.00 47 1006.8
20260509203009 32 298 6.4 8.0 0.00 0.00 0.00 45 1006.7
20260509202503 32 0 4.8 11.3 0.00 0.00 0.00 46 1006.9
20260509201959 32 7 1.6 6.4 0.00 0.00 0.00 45 1006.9
20260509201454 32 316 3.2 6.4 0.00 0.00 0.00 49 1006.9
20260509200952 32 267 6.4 9.7 0.00 0.00 0.00 46 1007.0
20260509200447 31 247 4.8 6.4 0.00 0.00 0.00 47 1006.9
20260509195943 32 286 6.4 8.0 0.00 0.00 0.00 48 1007.0
20260509195438 32 0 6.4 8.0 0.00 0.00 0.00 48 1007.1
20260509194933 32 262 4.8 8.0 0.00 0.00 0.00 47 1007.3
20260509194428 32 261 1.6 6.4 0.00 0.00 0.00 50 1007.1
20260509193926 31 282 4.8 4.8 0.00 0.00 0.00 48 1007.2
20260509193425 31 294 6.4 14.5 0.00 0.00 0.00 49 1007.4
20260509192921 31 255 9.7 11.3 0.00 0.00 0.00 49 1007.3
20260509192412 31 311 9.7 12.9 0.00 0.00 0.00 48 1007.4
20260509191907 31 331 3.2 4.8 0.00 0.00 0.00 49 1007.4
20260509191403 31 246 1.6 9.7 0.00 0.00 0.00 48 1007.3
20260509190859 31 269 0.0 6.4 0.00 0.00 0.00 48 1007.3
20260509190356 31 152 0.0 4.8 0.00 0.00 0.00 49 1007.4
20260509185854 31 56 4.8 8.0 0.00 0.00 0.00 48 1007.5
20260509185350 30 317 1.6 8.0 0.00 0.00 0.00 47 1007.7
20260509184848 30 349 4.8 8.0 0.00 0.00 0.00 50 1007.7
20260509184344 30 307 12.9 12.9 0.00 0.00 0.00 49 1007.9
20260509183841 31 332 3.2 11.3 0.00 0.00 0.00 48 1007.8
20260509183336 30 314 4.8 9.7 0.00 0.00 0.00 50 1007.7
20260509182833 30 283 11.3 12.9 0.00 0.00 0.00 49 1007.9
20260509182330 30 319 6.4 14.5 0.00 0.00 0.00 50 1007.9
20260509181827 30 96 0.0 11.3 0.00 0.00 0.00 51 1007.9
20260509181324 30 262 8.0 12.9 0.00 0.00 0.00 49 1008.1
20260509180822 30 306 3.2 8.0 0.00 0.00 0.00 49 1008.0
20260509180317 30 312 11.3 14.5 0.00 0.00 0.00 50 1008.1
20260509175814 30 350 4.8 11.3 0.00 0.00 0.00 53 1008.1
20260509175311 30 289 8.0 14.5 0.00 0.00 0.00 51 1008.3
20260509174807 30 294 8.0 9.7 0.00 0.00 0.00 50 1008.3
20260509174302 30 315 8.0 9.7 0.00 0.00 0.00 50 1008.1
20260509173758 30 291 4.8 11.3 0.00 0.00 0.00 52 1008.3
20260509173254 30 348 4.8 8.0 0.00 0.00 0.00 51 1008.4
20260509172750 30 354 4.8 8.0 0.00 0.00 0.00 49 1008.4
20260509172247 30 288 6.4 11.3 0.00 0.00 0.00 50 1008.4
20260509171743 29 277 6.4 17.7 0.00 0.00 0.00 54 1008.5
20260509171239 30 294 8.0 17.7 0.00 0.00 0.00 50 1008.6
20260509170736 30 306 14.5 22.5 0.00 0.00 0.00 52 1008.6
20260509170232 29 299 6.4 12.9 0.00 0.00 0.00 53 1008.6
20260509165731 29 277 8.0 11.3 0.00 0.00 0.00 51 1008.6
20260509165226 29 348 3.2 9.7 0.00 0.00 0.00 52 1008.7
20260509164722 29 349 4.8 8.0 0.00 0.00 0.00 55 1008.5
20260509164218 29 303 14.5 17.7 0.00 0.00 0.00 54 1008.7
20260509163715 29 296 4.8 8.0 0.00 0.00 0.00 52 1008.7
20260509163212 28 0 3.2 11.3 0.00 0.00 0.00 52 1008.8
20260509162709 28 22 4.8 11.3 0.00 0.00 0.00 51 1008.8
20260509162205 28 0 4.8 8.0 0.00 0.00 0.00 52 1008.8
20260509161700 28 286 6.4 8.0 0.00 0.00 0.00 53 1008.8
20260509161156 28 295 4.8 12.9 0.00 0.00 0.00 54 1008.8
20260509160652 28 281 4.8 11.3 0.00 0.00 0.00 52 1008.8
20260509160148 28 344 3.2 8.0 0.00 0.00 0.00 59 1008.6
20260509155644 28 311 4.8 9.7 0.00 0.00 0.00 58 1008.8
20260509155140 28 311 6.4 11.3 0.00 0.00 0.00 57 1009.1
20260509154636 27 308 3.2 12.9 0.00 0.00 0.00 62 1009.2
20260509154133 27 290 6.4 11.3 0.00 0.00 0.00 61 1008.9
20260509153630 27 296 4.8 11.3 0.00 0.00 0.00 62 1009.1
20260509153127 27 359 6.4 11.3 0.00 0.00 0.00 61 1009.0
20260509152623 27 322 6.4 12.9 0.00 0.00 0.00 62 1008.9
20260509152121 27 339 4.8 11.3 0.00 0.00 0.00 66 1008.8
20260509151617 27 350 8.0 8.0 0.00 0.00 0.00 65 1008.9
20260509151114 27 9 3.2 9.7 0.00 0.00 0.00 66 1009.0
20260509150612 27 346 4.8 11.3 0.00 0.00 0.00 67 1008.8
20260509150110 26 0 6.4 11.3 0.00 0.00 0.00 67 1008.7
20260509145606 26 345 12.9 14.5 0.00 0.00 0.00 67 1008.8
20260509145101 26 357 4.8 11.3 0.00 0.00 0.00 70 1008.6
20260509144558 26 340 4.8 11.3 0.00 0.00 0.00 69 1008.7
20260509144055 25 2 6.4 19.3 0.00 0.00 0.00 69 1009.0
20260509143552 25 16 9.7 19.3 0.00 0.00 0.00 70 1008.9
20260509143050 25 12 12.9 14.5 0.00 0.00 0.00 73 1008.8
20260509142544 25 15 8.0 12.9 0.00 0.00 0.00 74 1008.8
20260509142041 25 354 6.4 12.9 0.00 0.00 0.00 75 1008.8
20260509141532 25 357 6.4 9.7 0.00 0.00 0.00 75 1009.1
20260509141029 24 306 8.0 12.9 0.00 0.00 0.00 75 1009.0
20260509140525 24 342 6.4 11.3 0.00 0.00 0.00 77 1008.8
20260509140024 23 334 8.0 16.1 0.00 0.00 0.00 77 1009.1
20260509135520 23 341 4.8 12.9 0.00 0.00 0.00 78 1009.0
20260509135018 24 345 4.8 9.7 0.00 0.00 0.00 78 1008.9
20260509134515 24 328 9.7 16.1 0.00 0.00 0.00 77 1009.0
20260509134013 23 325 4.8 16.1 0.00 0.00 0.00 78 1009.1
20260509133509 23 322 3.2 12.9 0.00 0.00 0.00 79 1009.0
20260509133007 23 345 8.0 14.5 0.00 0.00 0.00 79 1008.9
20260509132505 23 32 6.4 14.5 0.00 0.00 0.00 78 1009.0
20260509132002 23 337 11.3 12.9 0.00 0.00 0.00 78 1008.6
20260509131459 23 317 4.8 14.5 0.00 0.00 0.00 78 1008.9
20260509130955 22 322 4.8 9.7 0.00 0.00 0.00 80 1008.6
20260509130451 22 317 8.0 12.9 0.00 0.00 0.00 79 1008.6
20260509125948 22 345 4.8 14.5 0.00 0.00 0.00 79 1008.5
20260509125445 22 322 6.4 19.3 0.00 0.00 0.00 79 1008.4
20260509124940 22 304 9.7 14.5 0.00 0.00 0.00 80 1008.4
20260509124438 22 323 4.8 14.5 0.00 0.00 0.00 80 1008.4
20260509123935 22 354 4.8 9.7 0.00 0.00 0.00 80 1008.4
20260509123432 22 322 4.8 9.7 0.00 0.00 0.00 80 1008.5
20260509122922 21 324 4.8 8.0 0.00 0.00 0.00 81 1008.4
20260509122420 21 338 3.2 8.0 0.00 0.00 0.00 83 1008.5
20260509121916 21 334 3.2 4.8 0.00 0.00 0.00 83 1008.4
20260509121413 21 345 1.6 4.8 0.00 0.00 0.00 85 1008.4
20260509120911 20 49 0.0 3.2 0.00 0.00 0.00 89 1008.5
20260509120409 20 335 0.0 3.2 0.00 0.00 0.00 90 1008.6
20260509115907 21 306 1.6 4.8 0.00 0.00 0.00 90 1008.5
20260509115404 21 288 3.2 4.8 0.00 0.00 0.00 89 1008.5
20260509114901 21 261 3.2 3.2 0.00 0.00 0.00 88 1008.3
20260509114400 21 296 1.6 6.4 0.00 0.00 0.00 88 1008.3
20260509113859 21 258 3.2 4.8 0.00 0.00 0.00 91 1008.5
20260509113355 21 307 4.8 6.4 0.00 0.00 0.00 92 1008.3
20260509112852 21 211 3.2 4.8 0.00 0.00 0.00 91 1008.3
20260509112349 21 201 1.6 3.2 0.00 0.00 0.00 90 1008.5
20260509111847 21 331 3.2 3.2 0.00 0.00 0.00 89 1008.2
20260509111343 22 340 4.8 6.4 0.00 0.00 0.00 89 1008.5
20260509110842 22 337 6.4 11.3 0.00 0.00 0.00 90 1008.2
20260509110337 22 294 4.8 9.7 0.00 0.00 0.00 91 1008.2
20260509105836 22 314 1.6 11.3 0.00 0.00 0.00 91 1008.0
20260509105333 22 41 1.6 8.0 0.00 0.00 0.00 92 1008.1
20260509104829 22 6 3.2 8.0 0.00 0.00 0.00 93 1007.9
20260509104326 22 345 3.2 11.3 0.00 0.00 0.00 93 1008.0
20260509103824 22 311 12.9 17.7 0.00 0.00 0.00 94 1007.9
20260509103321 22 351 3.2 17.7 0.00 0.00 0.00 94 1007.4
20260509102820 22 316 12.9 22.5 0.00 0.00 0.00 94 1007.4
20260509102317 21 288 8.0 27.4 0.00 0.00 0.00 95 1007.4
20260509101812 21 211 11.3 22.5 0.00 0.00 0.00 95 1006.5
20260509101309 21 193 11.3 20.9 0.00 0.00 0.00 95 1006.4
20260509100807 21 253 3.2 12.9 0.00 0.00 0.00 95 1006.1
20260509100304 21 200 20.9 22.5 0.00 0.00 0.00 95 1005.6
20260509095800 21 174 8.0 30.6 0.00 0.00 0.00 95 1005.5
20260509095257 21 212 6.4 22.5 0.00 0.00 0.00 95 1005.7
20260509094755 21 206 14.5 22.5 0.00 0.00 0.00 95 1005.7
20260509094251 21 180 3.2 12.9 0.00 0.00 0.00 95 1005.4
20260509093749 21 212 4.8 22.5 0.00 0.00 0.00 95 1005.6
20260509093246 21 161 11.3 27.4 0.00 0.00 0.00 95 1005.0
20260509092745 21 172 11.3 20.9 0.00 0.00 0.00 95 1005.2
20260509092242 21 184 9.7 19.3 0.00 0.00 0.00 95 1005.6
20260509091740 21 173 8.0 17.7 0.00 0.00 0.00 95 1005.7
20260509091236 21 193 8.0 22.5 0.00 0.00 0.00 95 1005.8
20260509090734 21 181 9.7 20.9 0.00 0.00 0.00 95 1005.9
20260509090231 21 211 11.3 20.9 0.00 0.00 0.00 95 1006.5
20260509085728 21 173 11.3 24.1 0.00 0.00 0.00 95 1006.3
20260509085225 21 191 4.8 19.3 0.00 0.00 0.00 95 1006.2
20260509084722 21 197 8.0 12.9 0.00 0.00 0.00 95 1006.5
20260509084218 21 222 8.0 11.3 0.00 0.00 0.00 95 1006.6
20260509083717 21 195 4.8 14.5 0.00 0.00 0.00 94 1006.9
20260509083213 21 185 4.8 14.5 0.00 0.00 0.00 94 1007.1
20260509082710 21 182 11.3 14.5 0.00 0.00 0.00 95 1007.1
20260509082206 21 144 4.8 12.9 0.00 0.00 0.00 94 1007.3
20260509081703 21 178 3.2 14.5 0.00 0.00 0.00 95 1007.2
20260509081201 21 188 8.0 14.5 0.00 0.00 0.00 95 1007.4
20260509080659 21 180 3.2 17.7 0.00 0.00 0.00 95 1007.9
20260509080156 21 217 1.6 11.3 0.00 0.00 0.00 94 1008.4
20260509075654 21 160 4.8 9.7 0.00 0.00 0.00 94 1008.5
20260509075152 21 172 8.0 12.9 0.00 0.00 0.00 94 1008.9
20260509074648 21 185 8.0 9.7 0.00 0.00 0.00 94 1009.1
20260509074145 21 187 6.4 14.5 0.00 0.00 0.00 93 1009.2
20260509073642 21 214 4.8 9.7 0.00 0.00 0.00 93 1010.0
20260509073137 21 284 4.8 11.3 0.00 0.00 0.00 93 1010.3
20260509072634 21 289 12.9 19.3 0.00 0.00 0.00 93 1010.4
20260509072126 21 303 9.7 17.7 0.00 0.00 0.00 94 1010.2
20260509071622 21 304 4.8 11.3 0.00 0.00 0.00 95 1009.9
20260509071120 21 316 1.6 11.3 0.00 0.00 0.00 95 1009.9
20260509070617 21 312 4.8 9.7 0.00 0.00 0.00 96 1010.0
20260509070113 21 303 3.2 8.0 0.00 0.00 0.00 96 1009.8
20260509065609 21 313 1.6 4.8 0.00 0.00 0.00 96 1009.9
20260509065104 20 317 4.8 8.0 0.00 0.00 0.00 96 1010.3
20260509064602 20 357 3.2 6.4 0.00 0.00 0.00 96 1010.1
20260509064101 20 335 4.8 9.7 0.00 0.00 0.00 96 1010.1
20260509063556 20 347 1.6 4.8 0.00 0.00 0.00 96 1010.0
20260509063053 20 341 0.0 4.8 0.00 0.00 0.00 96 1009.6
20260509062550 20 356 3.2 11.3 0.00 0.00 0.00 96 1009.7
20260509062047 20 15 0.0 3.2 0.00 0.00 0.00 96 1009.6
20260509061544 20 4 0.0 4.8 0.00 0.00 0.00 96 1009.2
20260509061041 20 341 3.2 4.8 0.00 0.00 0.00 96 1009.4
20260509060539 20 354 3.2 4.8 0.00 0.00 0.00 96 1008.9
20260509060034 20 352 0.0 3.2 0.00 0.00 0.00 96 1008.9
20260509055530 20 10 1.6 1.6 0.00 0.00 0.00 96 1008.6
20260509055021 20 79 0.0 1.6 0.00 0.00 0.00 96 1008.5
20260509054517 20 174 0.0 0.0 0.00 0.00 0.00 96 1008.2
20260509054016 20 174 0.0 0.0 0.00 0.00 0.00 95 1008.5
20260509053514 20 174 0.0 3.2 0.00 0.00 0.00 96 1008.5
20260509053011 20 224 1.6 4.8 0.00 0.00 0.00 96 1008.7
20260509052508 20 202 0.0 1.6 0.00 0.00 0.00 95 1008.7
20260509052007 21 208 0.0 4.8 0.00 0.00 0.00 95 1008.4
20260509051504 21 217 0.0 4.8 0.00 0.00 0.00 95 1008.6
20260509051001 21 159 1.6 4.8 0.00 0.00 0.00 94 1008.7
20260509050457 21 187 0.0 3.2 0.00 0.00 0.00 94 1008.9
20260509045954 21 175 0.0 4.8 0.00 0.03 0.03 94 1008.6
20260509045451 21 157 0.0 3.2 0.00 0.03 0.03 93 1008.8
20260509044948 21 32 0.0 3.2 0.00 0.03 0.03 93 1008.9
20260509044446 21 36 3.2 4.8 0.00 0.03 0.03 93 1009.1
20260509043943 21 38 3.2 4.8 0.00 0.03 0.03 93 1008.8
20260509043438 21 89 0.0 3.2 0.00 0.03 0.03 92 1008.5
20260509042934 21 199 0.0 3.2 0.00 0.03 0.03 93 1008.5
20260509042432 21 164 0.0 6.4 0.00 0.03 0.03 92 1008.2
20260509041927 21 176 4.8 11.3 0.00 0.03 0.03 92 1008.2
20260509041424 22 159 3.2 11.3 0.00 0.03 0.03 92 1008.0
20260509040922 22 169 8.0 12.9 0.00 0.03 0.03 91 1008.1
20260509040420 22 135 1.6 9.7 0.00 0.03 0.03 91 1008.3
20260509035917 22 154 3.2 11.3 0.00 0.03 0.03 91 1008.4
20260509035414 22 160 4.8 11.3 0.00 0.03 0.03 91 1008.3
20260509034910 22 144 3.2 9.7 0.00 0.03 0.03 90 1008.2
20260509034408 22 176 4.8 9.7 0.00 0.03 0.03 90 1008.2
20260509033905 22 184 3.2 8.0 0.00 0.03 0.03 90 1008.2
20260509033402 22 160 3.2 17.7 0.00 0.03 0.03 90 1007.5
20260509032858 22 168 4.8 14.5 0.00 0.03 0.03 90 1007.5
20260509032356 22 162 4.8 11.3 0.00 0.03 0.03 89 1007.9
20260509031854 22 153 6.4 17.7 0.00 0.03 0.03 89 1007.7
20260509031351 22 202 6.4 12.9 0.00 0.03 0.03 89 1007.7
20260509030848 22 178 3.2 6.4 0.00 0.03 0.03 89 1007.7
20260509030345 22 141 3.2 14.5 0.00 0.03 0.03 88 1007.3
20260509025837 22 161 3.2 14.5 0.00 0.03 0.03 88 1007.7
20260509025332 23 172 8.0 16.1 0.00 0.03 0.03 88 1007.3
20260509024828 23 162 4.8 12.9 0.00 0.03 0.03 88 1007.7
20260509024324 23 160 3.2 11.3 0.00 0.03 0.03 88 1007.4
20260509023821 23 178 4.8 9.7 0.00 0.03 0.03 88 1007.2
20260509023319 23 196 6.4 8.0 0.00 0.03 0.03 88 1007.2
20260509022815 23 202 0.0 8.0 0.00 0.03 0.03 88 1007.1
20260509022313 23 199 3.2 6.4 0.00 0.03 0.03 88 1007.2
20260509021809 23 188 4.8 9.7 0.00 0.03 0.03 88 1007.1
20260509021307 23 211 3.2 6.4 0.00 0.03 0.03 87 1007.1
20260509020804 23 192 1.6 4.8 0.00 0.03 0.03 87 1007.1
20260509020302 23 302 0.0 4.8 0.00 0.03 0.03 87 1007.1
20260509015759 23 204 3.2 8.0 0.00 0.03 0.03 87 1006.9
20260509015257 23 144 0.0 6.4 0.00 0.03 0.03 87 1007.0
20260509014753 23 192 3.2 8.0 0.00 0.03 0.03 87 1006.7
20260509014250 23 181 1.6 11.3 0.00 0.03 0.03 87 1006.7
20260509013747 23 196 3.2 8.0 0.00 0.03 0.03 86 1006.8
20260509013243 23 167 6.4 12.9 0.00 0.03 0.03 86 1006.7
20260509012740 23 179 3.2 8.0 0.00 0.03 0.03 86 1006.8
20260509012236 23 166 6.4 6.4 0.00 0.03 0.03 85 1006.7
20260509011734 23 175 4.8 8.0 0.00 0.03 0.03 85 1006.7
20260509011231 23 148 4.8 8.0 0.00 0.03 0.03 85 1006.6
20260509010729 23 190 1.6 8.0 0.00 0.03 0.03 85 1006.4
20260509010225 23 183 0.0 8.0 0.00 0.03 0.03 85 1006.5
20260509005722 23 166 4.8 8.0 0.00 0.03 0.03 85 1005.9
20260509005220 23 140 6.4 8.0 0.00 0.03 0.03 85 1006.1
20260509004714 23 179 3.2 9.7 0.00 0.03 0.03 85 1006.1
20260509004212 23 181 4.8 8.0 0.00 0.03 0.03 84 1006.2
20260509003710 23 160 4.8 6.4 0.00 0.03 0.03 84 1006.1
20260509003207 23 162 6.4 9.7 0.00 0.03 0.03 85 1006.3
20260509002704 23 170 6.4 9.7 0.00 0.03 0.03 85 1006.5
20260509002202 23 177 0.0 4.8 0.00 0.03 0.03 85 1006.3
20260509001659 23 171 3.2 6.4 0.00 0.03 0.03 84 1006.3
20260509001155 24 159 3.2 6.4 0.00 0.03 0.03 84 1006.4
20260509000653 24 217 1.6 11.3 0.00 0.03 0.03 84 1006.1
20260509000150 24 179 3.2 9.7 0.00 0.03 0.03 84 1006.5
20260508235647 24 177 4.8 9.7 0.00 0.03 0.03 83 1006.3
20260508235144 24 189 1.6 11.3 0.00 0.03 0.03 83 1006.3
20260508234641 24 168 8.0 9.7 0.00 0.03 0.03 82 1006.0
20260508234137 24 154 4.8 11.3 0.00 0.03 0.03 82 1006.1
20260508233637 24 179 3.2 4.8 0.00 0.03 0.03 82 1006.0
20260508233134 24 150 8.0 14.5 0.00 0.03 0.03 82 1006.1
20260508232631 25 154 6.4 12.9 0.00 0.03 0.03 81 1005.9
20260508232128 25 145 8.0 12.9 0.00 0.03 0.03 80 1006.2
20260508231626 25 219 6.4 16.1 0.00 0.03 0.03 80 1006.2
20260508231123 25 196 4.8 17.7 0.00 0.03 0.03 80 1006.1
20260508230619 25 154 3.2 17.7 0.00 0.03 0.03 81 1006.1
20260508230115 25 172 6.4 9.7 0.00 0.03 0.03 81 1005.9
20260508225614 24 171 6.4 14.5 0.00 0.03 0.03 81 1006.1
20260508225109 24 193 8.0 19.3 0.00 0.03 0.03 81 1006.0
20260508224608 24 160 6.4 12.9 0.00 0.03 0.03 81 1006.0